Temperature
21 20 21 20 19 19 20 20 20 20 19 19 19 19 20 20 20 19 19 19 19 18 18 18 18 18 18 18 19 19 19 19 19 18 18 17 17 17 17 17 17 16 17
21 20 21 20 19 19 19 19 19 19 19 19 19 19 20 20 20 20 20 20 20 19 19 19 19 19 19 19 19 19 19 19 19 19 18 18 18 18 18 17 17 17 17
21 20 21 20 20 19 19 19 19 19 19 19 19 19 20 20 20 20 20 20 20 20 20 20 20 20 19 20 20 20 20 20 19 19 18 17 18 19 19 18 18 18 18
21 20 20 21 20 20 19 19 19 19 20 20 20 20 20 20 20 20 20 20 20 20 20 20 20 20 20 20 19 20 20 20 19 19 18 18 18 18 19 19 19 19 18
20 19 19 21 21 20 20 20 20 20 20 20 20 20 20 20 20 20 20 20 20 20 20 20 19 19 19 19 19 19 19 19 19 19 17 17 18 18 19 19 19 19 18
20 19 21 21 21 21 20 20 20 20 20 20 20 20 20 20 20 20 20 20 20 19 19 19 19 19 19 19 19 19 19 19 19 17 17 17 17 18 19 18 19 19 18
20 20 21 21 21 21 21 21 20 20 20 20 20 20 20 20 19 19 19 20 19 19 19 19 19 18 18 18 18 18 18 18 19 17 17 17 17 17 18 18 18 18 18
21 20 19 21 21 21 21 20 20 20 20 20 20 20 19 19 19 19 19 19 19 19 19 19 19 19 19 18 18 18 17 17 17 17 17 17 17 18 18 18 18 18 17
21 20 19 20 21 21 20 20 20 20 20 20 20 20 19 19 19 19 19 19 19 19 19 19 19 19 19 19 18 18 18 18 17 17 17 17 17 17 18 18 18 18 17
20 20 19 19 19 20 20 20 20 20 20 20 20 19 19 19 19 19 19 19 18 19 19 19 19 19 19 19 18 18 18 18 17 18 18 17 17 17 17 17 18 18 18
19 19 19 19 19 18 18 20 20 20 19 19 19 19 19 18 18 18 18 18 18 18 18 18 18 18 18 18 18 18 18 17 18 19 19 18 17 17 17 17 17 18 18
20 20 20 20 19 19 18 18 18 17 17 17 17 17 18 18 18 18 18 18 18 18 18 18 18 18 18 18 18 18 18 17 18 18 18 17 17 17 17 17 17 17 18
21 21 20 21 21 20 19 18 18 18 18 18 18 17 18 18 18 18 17 18 18 18 18 18 18 18 17 17 18 18 17 17 18 18 18 17 17 18 18 18 17 18 18
21 22 22 21 21 20 19 19 19 18 18 18 18 18 18 17 17 17 17 18 18 18 18 17 17 17 17 17 17 18 17 17 18 18 18 17 18 18 18 18 18 18 18
22 22 21 21 21 20 19 18 18 18 18 18 18 18 17 17 17 17 17 17 18 18 18 18 16 16 18 18 18 18 18 18 18 18 19 19 18 18 18 18 18 18 18
22 21 21 21 20 20 19 19 19 19 18 18 18 17 17 17 17 17 17 17 17 18 18 17 16 16 18 18 18 18 18 19 19 19 19 18 18 18 18 18 18 18 18
22 21 21 20 20 20 20 19 19 19 18 18 18 17 17 17 17 17 17 16 17 17 17 16 16 17 19 19 18 18 19 19 19 18 19 19 18 18 18 18 18 18 18
22 21 21 21 20 19 19 18 19 18 18 18 17 17 17 17 17 17 17 17 17 17 17 17 16 18 18 18 19 19 19 19 17 18 18 18 18 18 18 18 18 18 18
21 21 20 20 20 19 19 19 18 18 18 17 17 17 16 17 16 16 16 16 16 16 16 16 16 16 17 17 18 18 19 19 19 18 17 19 18 18 18 18 18 18 18
21 21 20 20 20 20 20 19 19 18 17 17 17 17 16 17 16 16 16 16 15 15 16 16 16 16 16 16 16 17 17 18 18 17 16 17 18 17 18 18 17 17 18
21 21 20 20 21 20 19 19 19 19 18 18 17 17 17 16 15 15 15 15 15 15 15 15 15 16 16 16 16 16 16 17 18 17 16 17 17 17 17 18 17 18 18
21 21 21 20 21 20 19 19 19 18 18 18 17 16 16 16 15 15 15 14 14 14 14 14 14 15 16 17 17 16 17 18 18 18 17 16 17 17 17 17 17 18 18
22 21 21 21 21 20 20 19 18 18 18 18 17 17 16 15 15 15 15 14 15 14 14 14 14 14 15 16 16 16 17 18 19 18 17 16 17 17 17 17 18 18 18
22 21 21 22 21 21 20 19 19 19 19 18 17 17 16 15 15 15 14 13 14 14 13 13 13 13 14 15 16 16 16 16 17 17 17 16 17 17 17 17 17 17 17
22 21 21 21 21 21 21 20 19 19 19 18 17 16 15 15 14 14 14 13 13 13 13 13 13 13 13 14 15 16 16 16 15 15 16 17 17 17 17 16 16 17 17
20 20 20 20 21 21 21 20 20 19 19 18 17 16 16 15 15 14 13 13 12 12 12 12 13 13 13 14 14 14 15 16 16 16 16 17 18 18 17 16 16 16 16
Wind_Speed
14 21 19 16 14 13 13 15 16 17 17 17 16 15 13 12 11 10 10 9 8 7 9 10 9 8 8 10 10 11 12 11 9 8 7 8 9 8 8 7 8 11 12
17 21 20 16 15 14 13 14 15 16 16 16 15 13 13 13 12 11 9 9 8 7 8 8 8 6 6 7 8 8 9 9 8 7 7 8 8 7 7 4 1 12 12
19 21 20 16 15 14 13 13 14 15 15 15 14 12 11 11 11 10 9 8 7 7 6 6 6 6 6 6 6 7 7 8 7 7 8 10 10 9 8 5 5 10 9
19 20 19 17 15 14 14 13 14 14 14 13 12 11 10 10 9 8 7 7 6 5 5 5 5 5 5 5 5 5 4 4 6 7 9 6 8 10 9 8 7 9 10
17 18 19 18 16 16 15 15 14 14 13 13 12 11 10 9 8 8 7 6 5 4 3 3 4 4 5 5 4 3 3 2 3 8 6 4 3 11 12 10 9 10 11
16 16 20 18 17 16 15 15 14 14 13 12 11 10 10 9 8 7 6 5 5 4 4 4 3 4 5 5 5 5 4 5 7 9 6 4 3 11 13 10 9 10 10
15 15 18 16 16 16 16 15 14 14 13 11 10 9 9 8 8 7 6 5 5 4 4 4 4 3 3 5 6 7 8 8 10 9 7 8 7 8 11 13 12 11 12
14 14 18 16 15 15 15 15 15 14 13 12 11 10 9 8 8 7 7 7 7 7 7 6 6 5 6 7 7 7 7 10 11 11 9 9 11 12 12 13 14 15 17
12 12 15 15 14 13 13 13 12 12 12 12 12 11 10 9 9 9 9 10 10 10 9 8 8 8 9 8 8 8 9 10 12 12 11 11 12 13 14 16 14 18 20
9 10 10 12 14 13 13 14 14 14 14 14 13 12 12 11 11 11 11 13 12 11 11 11 11 11 11 10 10 11 12 11 15 16 13 10 9 10 13 15 15 15 19
9 8 9 10 11 11 12 13 14 14 13 13 13 13 13 12 13 14 13 10 10 11 12 12 13 13 12 14 15 15 13 14 17 14 12 9 10 9 12 14 15 16 18
12 11 10 9 9 10 10 10 12 13 14 14 14 14 14 13 11 8 7 7 10 12 13 14 15 13 12 14 13 12 13 15 15 11 10 7 11 12 15 17 18 18 18
11 11 11 10 9 9 9 9 10 12 13 13 12 12 13 11 10 9 11 11 12 13 13 13 13 11 9 11 12 11 13 13 12 13 13 12 12 14 17 19 20 20 20
11 11 12 12 10 9 8 8 8 8 9 9 12 12 12 8 9 10 9 10 9 10 10 10 7 9 10 13 13 13 14 15 15 13 11 14 16 18 20 21 20 20 21
10 10 10 9 8 7 7 6 5 7 8 11 11 12 10 8 9 9 9 9 11 12 9 5 6 9 11 12 13 13 14 15 18 15 13 16 16 18 21 23 21 21 22
10 9 9 8 7 7 7 8 7 7 8 9 9 10 10 9 8 10 9 9 10 11 9 2 3 9 16 14 13 15 15 13 16 16 14 15 20 20 21 23 21 20 21
10 9 8 8 8 8 8 8 7 8 8 8 9 10 13 11 10 10 9 10 10 11 8 4 6 10 18 16 16 17 15 15 16 16 14 14 18 19 22 22 22 21 20
8 9 8 7 7 7 7 7 6 8 8 8 8 7 11 10 10 9 8 8 8 9 5 7 10 13 17 16 16 16 15 16 18 14 13 14 16 17 16 21 21 21 22
7 7 7 7 6 5 5 5 5 5 6 6 7 6 6 7 6 6 5 6 6 7 6 7 11 13 14 14 14 15 14 17 16 15 12 12 17 19 16 17 20 19 18
6 6 5 5 4 3 3 4 3 4 5 5 5 4 3 3 2 3 5 6 7 9 9 9 11 12 13 14 15 16 17 19 18 15 17 15 16 20 18 16 18 18 21
7 7 5 4 4 3 3 2 2 3 3 3 2 2 3 3 2 4 7 8 9 10 11 12 13 15 15 15 14 15 18 19 19 15 15 16 16 14 14 17 19 15 16
8 8 6 5 6 4 3 2 2 3 4 3 3 3 4 4 4 5 6 8 10 11 13 14 14 14 15 15 14 14 15 15 18 17 15 15 15 12 13 13 13 12 13
8 8 7 6 6 6 4 4 5 6 7 7 7 7 4 5 6 6 7 9 10 11 12 12 13 15 15 15 15 14 12 13 12 12 13 13 13 11 12 11 11 10 11
8 8 8 8 8 7 7 6 6 7 7 7 7 7 6 5 6 8 8 9 9 10 12 11 10 12 15 15 15 17 19 18 16 10 9 10 11 11 11 10 10 10 10
4 6 8 9 10 9 9 9 8 8 8 7 7 6 7 6 6 7 7 9 10 11 11 13 13 12 13 16 16 16 16 15 17 16 14 12 12 12 11 12 11 10 10
6 7 8 8 10 10 10 10 9 8 9 9 7 7 7 7 6 5 7 9 10 11 12 13 13 15 15 15 15 14 15 14 14 13 16 17 16 11 8 10 9 9 7
Wind_Direction
154 148 158 161 158 147 140 133 133 136 137 137 136 137 139 138 135 130 123 118 113 100 107 107 110 101 103 111 108 117 127 128 131 137 138 137 135 124 119 129 168 133 128
150 148 154 161 159 152 147 136 131 134 137 137 137 141 142 138 135 133 127 120 116 110 102 101 105 108 111 114 116 122 130 134 137 148 147 135 128 128 125 150 283 115 139
146 147 156 160 159 154 149 143 138 139 140 141 142 143 142 140 140 140 137 128 122 118 117 119 126 130 134 136 138 142 145 149 149 169 186 174 139 143 144 154 121 127 146
146 147 155 155 156 154 151 149 147 147 146 146 147 148 147 146 146 147 146 141 136 133 134 136 139 139 140 146 150 153 155 149 161 192 207 174 149 149 160 157 157 156 159
143 147 143 152 156 158 157 156 156 155 153 153 155 156 156 157 159 158 159 157 156 158 165 173 171 166 162 163 168 168 170 183 187 215 216 176 173 144 164 165 171 173 183
143 147 137 152 159 161 163 163 161 162 164 165 167 170 170 170 173 174 176 180 185 194 205 218 215 201 192 189 195 204 209 208 222 227 203 185 204 129 162 181 192 182 191
146 141 141 154 161 166 168 169 169 169 173 176 180 185 188 186 189 193 200 210 218 230 243 256 265 264 237 219 215 217 221 225 237 242 220 200 199 167 183 194 200 198 197
147 143 143 156 163 171 175 176 178 178 179 183 188 194 200 201 206 215 225 233 236 239 245 253 260 268 273 273 261 248 243 240 247 243 238 228 186 176 201 213 211 210 206
151 148 146 160 164 170 179 182 185 187 189 191 195 199 204 211 219 228 236 240 244 246 247 252 260 267 273 276 273 257 246 245 258 256 243 238 191 187 209 225 229 223 214
156 155 153 171 173 182 183 186 192 195 196 198 201 206 210 216 220 227 234 237 238 248 254 256 258 262 263 257 257 259 252 251 248 252 243 230 184 206 219 231 234 227 220
171 174 174 186 184 196 196 186 197 201 205 207 208 212 218 227 225 223 222 236 237 244 255 261 264 264 269 261 245 246 249 255 259 256 256 182 180 216 236 242 238 232 226
177 186 191 197 196 205 211 201 204 211 213 217 219 219 222 233 243 260 277 241 244 251 253 257 262 264 265 266 253 239 248 253 257 262 267 197 191 220 239 243 241 236 231
175 183 191 200 206 211 212 216 215 219 224 228 231 243 246 250 254 249 252 242 238 239 250 253 254 262 288 294 288 281 276 277 268 262 247 224 217 236 241 242 238 236 233
174 185 191 196 202 213 220 220 228 230 237 237 236 226 243 249 254 256 266 276 277 272 272 269 285 300 290 278 278 281 279 277 271 270 266 237 229 238 242 242 237 233 230
180 186 190 195 205 211 225 238 245 242 238 245 251 248 235 248 260 275 280 292 291 288 286 298 288 300 291 276 272 266 259 261 266 266 264 271 261 249 244 240 237 231 228
185 187 192 196 204 213 223 234 236 246 251 254 265 274 264 253 260 267 267 262 264 268 269 254 30 322 289 269 262 267 259 250 255 258 257 264 264 255 253 243 236 231 228
191 194 200 202 204 216 228 241 250 248 246 260 264 271 277 279 272 270 279 277 275 273 258 171 173 239 266 271 267 271 276 268 259 255 257 261 263 246 242 244 236 228 227
196 196 207 214 212 224 231 245 250 258 258 265 274 274 277 282 279 274 270 272 280 280 254 183 194 230 257 267 271 276 267 263 253 261 264 262 266 267 246 245 239 228 224
197 199 204 219 228 232 242 253 247 253 265 273 279 278 291 299 292 275 268 276 281 277 260 227 217 223 242 249 257 263 263 267 264 264 264 267 265 272 269 264 241 228 226
172 181 185 202 211 210 215 220 232 246 253 261 271 289 292 284 291 300 293 293 290 283 277 266 255 239 242 251 257 262 265 263 260 257 254 243 237 241 244 251 249 235 224
155 158 166 166 141 156 179 219 224 247 252 255 245 219 231 242 275 294 298 295 284 281 281 278 269 261 256 252 255 267 265 263 260 254 252 253 248 240 245 247 246 248 238
162 162 156 156 151 178 202 233 280 276 272 287 275 243 246 277 290 288 293 289 288 285 274 264 263 266 264 262 260 265 269 267 259 252 238 243 250 253 251 249 246 247 258
178 174 162 169 177 198 212 209 221 232 236 241 244 246 256 289 284 288 288 287 286 279 275 271 266 262 265 266 260 255 263 259 261 255 239 233 236 235 245 258 257 251 246
198 190 181 188 200 209 219 242 261 286 298 307 293 290 301 286 287 290 287 290 285 276 276 273 261 265 267 266 259 251 249 264 272 272 245 226 218 225 231 231 231 228 241
244 223 209 207 216 222 224 240 246 265 285 281 276 275 271 268 275 286 298 299 290 284 288 286 276 265 259 259 264 264 259 248 247 252 259 249 228 220 218 225 235 239 234
305 284 264 249 246 242 238 236 239 255 267 269 261 269 292 301 292 279 293 299 298 295 288 278 274 269 266 268 269 270 265 260 251 243 248 250 254 248 207 225 230 232 235
Height
1526 1526 1528 1530 1533 1536 1538 1541 1543 1544 1546 1547 1549 1550 1550 1551 1552 1552 1553 1553 1554 1554 1555 1556 1556 1557 1557 1557 1557 1557 1557 1558 1558 1558 1559 1560 1560 1560 1560 1560 1561 1562 1561
1525 1526 1528 1531 1534 1537 1540 1542 1544 1546 1547 1549 1550 1551 1551 1551 1552 1554 1554 1555 1556 1556 1556 1557 1557 1558 1558 1558 1559 1559 1559 1559 1559 1560 1560 1560 1560 1561 1561 1561 1561 1564 1563
1525 1526 1528 1532 1535 1538 1540 1543 1545 1546 1548 1549 1551 1552 1552 1553 1554 1555 1555 1556 1557 1558 1558 1558 1558 1558 1559 1559 1559 1559 1559 1560 1560 1560 1561 1563 1562 1561 1562 1562 1562 1563 1564
1526 1528 1530 1532 1536 1539 1541 1544 1545 1547 1548 1550 1551 1553 1553 1554 1555 1556 1556 1556 1558 1559 1559 1559 1559 1559 1560 1560 1560 1560 1560 1560 1560 1560 1562 1565 1564 1562 1562 1563 1563 1563 1564
1527 1529 1531 1533 1536 1539 1541 1544 1545 1547 1549 1550 1552 1552 1553 1554 1555 1556 1557 1557 1557 1558 1559 1559 1559 1560 1560 1560 1561 1561 1560 1560 1560 1560 1563 1563 1564 1563 1562 1562 1563 1564 1564
1529 1531 1531 1534 1536 1540 1542 1544 1545 1547 1548 1550 1551 1552 1553 1553 1555 1556 1557 1557 1557 1558 1559 1559 1559 1559 1559 1559 1559 1559 1559 1559 1559 1561 1562 1561 1561 1562 1561 1562 1563 1563 1564
1531 1533 1531 1535 1537 1540 1542 1544 1546 1547 1549 1550 1551 1552 1553 1553 1554 1555 1555 1556 1557 1557 1558 1559 1559 1559 1559 1558 1558 1558 1558 1558 1557 1560 1561 1561 1560 1560 1561 1562 1562 1562 1563
1531 1533 1532 1534 1537 1539 1542 1544 1545 1547 1548 1550 1551 1552 1553 1553 1553 1554 1554 1555 1555 1555 1556 1557 1558 1558 1557 1557 1557 1556 1556 1557 1557 1558 1558 1558 1558 1558 1559 1561 1560 1560 1560
1532 1534 1533 1534 1536 1538 1541 1543 1545 1547 1548 1549 1549 1550 1552 1552 1552 1553 1553 1553 1554 1554 1554 1555 1555 1555 1555 1555 1555 1554 1554 1554 1554 1556 1556 1556 1555 1555 1556 1557 1557 1558 1558
1532 1534 1534 1535 1535 1537 1539 1541 1543 1545 1546 1547 1548 1549 1550 1550 1550 1551 1551 1551 1552 1552 1552 1552 1553 1552 1552 1552 1552 1551 1552 1551 1551 1553 1553 1553 1552 1552 1552 1553 1553 1554 1556
1531 1533 1534 1536 1536 1537 1539 1540 1541 1543 1544 1545 1545 1546 1547 1548 1549 1549 1550 1550 1550 1549 1549 1549 1550 1549 1549 1548 1549 1549 1548 1548 1551 1551 1550 1549 1548 1549 1548 1548 1550 1551 1552
1529 1530 1532 1534 1535 1536 1538 1539 1539 1542 1543 1544 1545 1546 1546 1547 1548 1548 1548 1546 1547 1546 1546 1546 1547 1546 1545 1545 1546 1546 1545 1546 1547 1547 1546 1544 1544 1545 1545 1544 1545 1546 1547
1527 1528 1529 1530 1532 1534 1536 1538 1540 1541 1542 1543 1543 1543 1544 1544 1544 1544 1544 1544 1544 1544 1544 1544 1544 1543 1542 1540 1542 1543 1543 1543 1543 1543 1542 1540 1540 1541 1540 1540 1541 1542 1543
1525 1527 1528 1528 1530 1532 1534 1536 1537 1538 1540 1541 1541 1539 1538 1538 1540 1541 1540 1541 1541 1541 1541 1541 1541 1538 1536 1536 1535 1535 1536 1537 1538 1539 1538 1537 1537 1536 1536 1536 1537 1538 1539
1525 1526 1528 1529 1529 1530 1531 1533 1534 1536 1537 1538 1537 1537 1535 1534 1535 1535 1534 1534 1534 1535 1536 1535 1537 1536 1534 1531 1529 1529 1529 1529 1530 1532 1533 1533 1533 1533 1532 1532 1533 1534 1534
1524 1525 1527 1527 1528 1529 1529 1530 1531 1532 1533 1533 1532 1531 1531 1532 1531 1531 1530 1529 1528 1528 1528 1529 1532 1534 1530 1525 1524 1521 1523 1523 1524 1525 1525 1526 1528 1528 1529 1528 1528 1529 1530
1521 1523 1524 1526 1527 1527 1527 1527 1528 1529 1530 1530 1530 1529 1528 1528 1526 1526 1525 1524 1524 1523 1522 1521 1525 1528 1524 1519 1516 1513 1515 1515 1517 1519 1518 1519 1522 1523 1523 1523 1524 1525 1526
1520 1520 1522 1524 1526 1526 1525 1525 1524 1526 1527 1527 1527 1525 1524 1523 1521 1520 1519 1519 1519 1518 1517 1516 1518 1518 1515 1514 1510 1507 1508 1510 1510 1511 1511 1514 1515 1516 1516 1517 1519 1520 1521
1517 1518 1519 1521 1523 1524 1523 1523 1523 1523 1524 1524 1524 1523 1520 1520 1518 1516 1515 1514 1514 1514 1514 1513 1512 1512 1510 1506 1503 1502 1503 1502 1502 1503 1504 1505 1508 1510 1511 1512 1513 1516 1517
1515 1517 1518 1520 1521 1521 1521 1521 1522 1522 1522 1522 1522 1521 1518 1517 1516 1514 1513 1512 1511 1511 1511 1510 1509 1508 1504 1502 1500 1498 1497 1497 1496 1496 1496 1498 1501 1504 1505 1505 1507 1509 1510
1515 1517 1518 1519 1519 1520 1521 1522 1522 1522 1522 1521 1519 1518 1517 1516 1515 1513 1512 1510 1509 1507 1505 1504 1503 1502 1500 1499 1497 1494 1491 1490 1489 1488 1489 1493 1495 1497 1498 1499 1501 1502 1503
1515 1516 1516 1517 1518 1518 1520 1521 1521 1521 1520 1519 1518 1517 1515 1514 1512 1510 1508 1507 1504 1502 1500 1498 1497 1496 1495 1494 1493 1490 1486 1485 1481 1481 1482 1484 1486 1488 1491 1493 1494 1495 1496
1515 1515 1516 1516 1517 1518 1518 1519 1518 1517 1516 1516 1516 1515 1513 1510 1508 1506 1504 1501 1498 1495 1495 1493 1491 1490 1488 1487 1487 1486 1483 1477 1477 1477 1476 1477 1478 1480 1482 1485 1486 1487 1490
1513 1514 1514 1514 1515 1516 1516 1517 1516 1516 1514 1513 1513 1512 1510 1507 1504 1501 1499 1496 1493 1490 1489 1487 1484 1483 1482 1481 1480 1479 1478 1476 1476 1474 1473 1472 1472 1473 1475 1478 1480 1482 1484
1512 1513 1513 1512 1512 1513 1513 1513 1513 1513 1511 1510 1508 1506 1504 1503 1500 1497 1495 1492 1489 1486 1483 1480 1479 1477 1475 1474 1474 1473 1471 1469 1469 1469 1469 1469 1468 1468 1470 1473 1475 1477 1478
1510 1511 1511 1510 1509 1510 1510 1509 1509 1508 1507 1506 1505 1503 1502 1500 1498 1495 1491 1488 1485 1482 1479 1475 1474 1472 1470 1468 1466 1465 1465 1464 1462 1462 1462 1462 1463 1464 1465 1467 1468 1470 1471